Tracking 29892 objects as of 21-Nov-2024
HD Live streaming from Space Station
objects crossing your sky now

STARLINK-5698

Track STARLINK-5698 now!
10-day predictions
STARLINK-5698 is classified as:


NORAD ID: 55623
Int'l Code: 2023-020BG
Perigee: 565.2 km
Apogee: 567.2 km
Inclination: 43.0 °
Period: 95.8 minutes
Semi major axis: 6937 km
RCS: Unknown
Launch date: February 12, 2023
Source: United States (US)
Launch site: AIR FORCE EASTERN TEST RANGE (AFETR)
Your satellite tracking list
Your tracking list is empty




NASA's NSSDC Master Catalog

Two Line Element Set (TLE):
1 55623U 23020BG  24325.70548654  .00000325  00000-0  39146-4 0  9990
2 55623  43.0057  46.8290 0001451 269.1931  90.8745 15.02536591 97773
Source of the keplerian elements: AFSPC